[[{"header":{"parameterUnit":"m.s-1","parameterCategory":1,"la1":30.2991,"la2":30.254,"lo1":-89.0895,"lo2":-89.0444,"dy":0.0017,"dx":0.0017,"nx":28,"ny":28,"refTime":"2025-01-05T03:00:00:Z","depth":0,"parameterNumber":2,"parameterNumberName":"U-component_of_WINDS"},"data":[0,0,0,0,0,0,0,0,0,0,0,0,0,0,0,0,0,0,0,0,0,0,0,0,0,0,0,0,0,0,0,0,0,0,0,0,0,0,0,0,0,0,0,0,0,0,0,0,0,0,0,0,0,0,0,0,0,0,-6.2099,-6.2099,0,-6.2152,-6.2153,-6.2154,-6.2047,-6.2044,-6.204,-6.2037,-6.209,-6.2094,-6.2099,0,0,0,0,0,0,0,0,0,0,0,0,0,-6.1903,-6.1908,-6.2099,-6.2099,-6.21,-6.2152,-6.2153,-6.2154,-6.2048,-6.2044,-6.204,-6.2036,-6.2088,-6.2094,-6.2099,0,0,0,0,0,0,0,0,0,0,0,0,0,-6.1976,-6.1909,-6.2099,-6.2054,-6.205,-6.2152,-6.2153,-6.2154,-6.2049,-6.2044,-6.2038,-6.2034,-6.2087,-6.2093,-6.21,-6.2248,0,0,-6.2121,-6.2125,0,0,0,0,0,0,0,0,-6.1972,-6.1983,-6.206,-6.2057,-6.2053,-6.2088,-6.2103,-6.2185,-6.205,-6.2049,-6.2037,-6.2031,-6.2093,-6.2099,-6.2121,-6.225,-6.2252,-6.2122,-6.2126,-6.2129,-6.2131,0,0,0,0,0,0,0,-6.1967,-6.198,-6.212,-6.2061,-6.2057,-6.203,-6.2035,-6.2118,-6.21,-6.2049,-6.2041,-6.2049,-6.2091,-6.2114,-6.2121,-6.2253,-6.2122,-6.2128,-6.2132,-6.2135,-6.2506,-6.2511,0,0,0,0,0,0,-6.1968,-6.1977,-6.2118,-6.2121,-6.1999,-6.2038,-6.2043,-6.2082,-6.2099,-6.2096,-6.2054,-6.2044,-6.2105,-6.2113,-6.2123,-6.2295,-6.2129,-6.2136,-6.214,-6.25,-6.2507,-6.2513,0,0,0,0,0,0,-6.1964,-6.1981,-6.2116,-6.2047,-6.2062,-6.2047,-6.2092,-6.2086,-6.2109,-6.2102,-6.2098,-6.2082,-6.2101,-6.2113,-6.2217,-6.2295,-6.2139,-6.2145,-6.2493,-6.2502,-6.251,-6.2641,0,0,0,0,0,0,-6.1959,-6.1981,-6.2037,-6.2049,-6.2066,-6.221,-6.2096,-6.2091,-6.2122,-6.211,-6.2127,-6.2125,-6.2098,-6.2208,-6.2224,-6.2302,-6.2151,-6.2486,-6.2497,-6.2507,-6.263,-6.2653,-6.2673,0,0,0,0,0,-6.1952,-6.2071,-6.204,-6.2058,-6.2136,-6.2215,-6.2225,-6.2192,-6.2129,-6.2184,-6.218,-6.2125,-6.2285,-6.2219,-6.2237,-6.2318,-6.2481,-6.2494,-6.2506,-6.262,-6.2648,-6.2673,0,0,0,0,0,0,-6.2066,-6.2072,-6.2037,-6.2164,-6.219,-6.2197,-6.2266,-6.2223,-6.2267,-6.2253,-6.2211,-6.2215,-6.2328,-6.2334,-6.226,-6.2461,-6.2372,-6.2389,-6.2452,-6.2479,-6.2501,-6.2495,-6.2157,0,0,0,0,0,-6.2107,-6.2171,-6.2172,-6.2284,-6.2299,-6.2281,-6.2314,-6.2287,-6.2311,-6.2322,-6.2325,-6.2351,-6.2406,-6.2444,-6.2495,-6.2632,-6.2633,-6.2697,-6.2718,-6.2736,-6.275,-6.2821,-6.2848,-6.2555,-6.2555,-6.2554,0,0,-6.2189,-6.2201,-6.2243,-6.2307,-6.2324,-6.239,-6.229,-6.2365,-6.2414,-6.2333,-6.243,-6.2435,-6.2461,-6.2582,-6.2635,-6.259,-6.2832,-6.2752,-6.2767,-6.277,-6.2837,-6.2865,-6.2889,-6.2563,-6.2562,-6.2561,0,0,-6.2373,-6.239,-6.2483,-6.2503,-6.2531,-6.2519,-6.2542,-6.2556,-6.2556,-6.2654,-6.2595,-6.2653,-6.2751,-6.2771,-6.2794,-6.299,-6.294,-6.3009,-6.312,-6.319,-6.3213,-6.3233,-6.33,-6.3325,-6.3023,-6.3024,-6.3024,0,-6.2472,-6.2571,-6.2537,-6.2616,-6.2645,-6.2578,-6.2672,-6.2692,-6.2735,-6.2757,-6.2707,-6.2829,-6.2842,-6.2965,-6.3013,-6.3036,-6.3059,-6.3004,-6.3213,-6.3232,-6.3251,-6.3314,-6.334,-6.3032,-6.3031,-6.303,-6.3029,0,-6.269,-6.2759,-6.2832,-6.2876,-6.2914,-6.3001,-6.2979,-6.3022,-6.2993,-6.2986,-6.3088,-6.3102,-6.3154,-6.3183,-6.3155,-6.3303,-6.3274,-6.322,-6.3128,-6.3287,-6.3346,-6.337,-6.3043,-6.304,-6.3038,-6.3036,0,0,-6.2942,-6.2969,-6.2996,-6.3014,-6.3042,-6.3094,-6.3179,-6.3231,-6.3268,-6.3301,-6.3369,-6.3455,-6.3405,-6.3432,-6.3406,-6.3469,-6.362,-6.3406,-6.3406,-6.3442,-6.3782,-6.3819,-6.3848,-6.3589,-6.3594,-6.3597,-6.3778,0,-6.3122,-6.3266,-6.324,-6.338,-6.3443,-6.3381,-6.3454,-6.3479,-6.3476,-6.3529,-6.3525,-6.3586,-6.3517,-6.3532,-6.3592,-6.3589,-6.3687,-6.3576,-6.3649,-6.3652,-6.364,-6.3879,-6.3919,-6.4089,-6.3801,-6.3805,-6.3808,0,-6.3349,-6.3392,-6.3539,-6.3557,-6.3582,-6.3648,-6.3694,-6.3747,-6.3774,-6.3767,-6.3799,-6.3762,-6.3845,-6.3757,-6.387,-6.3795,-6.3825,-6.3829,-6.3834,-6.3836,-6.3736,-6.3884,-6.4143,-6.4167,-6.3845,-6.3842,-6.3839,0,-6.3515,-6.3609,-6.3709,-6.3728,-6.3752,-6.3799,-6.3812,-6.3834,-6.3867,-6.3908,-6.3929,-6.398,-6.4007,-6.4047,-6.4024,-6.3963,-6.4141,-6.4051,-6.4135,-6.4136,-6.4171,-6.4168,-6.4434,-6.4198,-6.4198,-6.4197,-6.4197,0,-6.3715,-6.3807,-6.3783,-6.3844,-6.3945,-6.3915,-6.4015,-6.402,-6.4041,-6.4101,-6.4053,-6.411,-6.408,-6.4135,-6.4119,-6.4214,-6.4227,-6.4223,-6.4216,-6.4224,-6.4224,-6.4239,-6.4225,-6.4204,-6.4203,-6.4201,-6.42,0,-6.3914,-6.3903,-6.4007,-6.4022,-6.4029,-6.4102,-6.4114,-6.4171,-6.4166,-6.4243,-6.426,-6.4251,-6.4314,-6.4298,-6.4366,-6.4355,-6.4474,-6.4455,-6.4464,-6.4458,-6.4542,-6.4533,-6.4823,-6.4858,-6.4604,-6.4606,-6.4608,0,-6.404,-6.4109,-6.4133,-6.4171,-6.4187,-6.4248,-6.4282,-6.4257,-6.4294,-6.4332,-6.4384,-6.4443,-6.4488,-6.4591,-6.4591,-6.4643,-6.4622,-6.4721,-6.4629,-6.4635,-6.4619,-6.4613,-6.4619,-6.4737,-6.474,-6.4742,-6.4744,0,-6.4265,-6.4257,-6.4308,-6.4359,-6.4402,-6.4441,-6.4475,-6.4508,-6.4485,-6.453,-6.4594,-6.463,-6.4701,-6.4759,-6.4807,-6.4819,-6.4777,-6.4774,-6.4796,-6.4802,-6.4803,-6.48,-6.4509,-6.4766,-6.4764,-6.4762,-6.4761,-6.476,-6.4429,-6.4487,-6.4513,-6.4572,-6.4596,-6.4629,-6.4683,-6.4686,-6.4739,-6.4795,-6.4778,-6.485,-6.4877,-6.4937,-6.4956,-6.5012,-6.4974,-6.5007,-6.5014,-6.5021,-6.503,-6.4799,-6.5022,-6.5021,-6.502,-6.502,-6.5019,0,-6.4647,-6.4662,-6.4718,-6.4767,-6.4814,-6.4775,-6.4811,-6.4852,-6.4917,-6.4946,-6.4992,-6.5066,-6.5124,-6.513,-6.5183,-6.5227,-6.5209,-6.5242,-6.5235,-6.5239,-6.5062,-6.5036,-6.5255,-6.5255,-6.5255,-6.5255,-6.5255,-6.5255,-6.4766,-6.4862,-6.4857,-6.4964,-6.4978,-6.5049,-6.5073,-6.5104,-6.5126,-6.5211,-6.5259,-6.5263,-6.5283,-6.5338,-6.5389,-6.5389,-6.5409,-6.5448,-6.5441,-6.5275,-6.5251,-6.5229,-6.5204,-6.5454,-6.5454,-6.5612,-6.5613,-6.5614]},{"header":{"parameterUnit":"m.s-1","parameterCategory":1,"la1":30.2991,"la2":30.254,"lo1":-89.0895,"lo2":-89.0444,"dy":0.0017,"dx":0.0017,"nx":28,"ny":28,"refTime":"2025-01-05T03:00:00:Z","depth":0,"parameterNumber":3,"parameterNumberName":"V-component_of_WINDS"},"data":[0,0,0,0,0,0,0,0,0,0,0,0,0,0,0,0,0,0,0,0,0,0,0,0,0,0,0,0,0,0,0,0,0,0,0,0,0,0,0,0,0,0,0,0,0,0,0,0,0,0,0,0,0,0,0,0,0,0,2.1171,2.1173,0,2.1317,2.1318,2.132,2.1327,2.1325,2.1323,2.1322,2.1471,2.1476,2.1481,0,0,0,0,0,0,0,0,0,0,0,0,0,2.0901,2.0906,2.1171,2.1173,2.1175,2.1316,2.1318,2.132,2.1327,2.1325,2.1323,2.1321,2.1469,2.1475,2.1482,0,0,0,0,0,0,0,0,0,0,0,0,0,2.103,2.0908,2.1171,2.1195,2.1199,2.1316,2.1318,2.1321,2.1327,2.1325,2.1322,2.132,2.1467,2.1475,2.1483,2.1586,0,0,2.1508,2.1512,0,0,0,0,0,0,0,0,2.1022,2.104,2.119,2.1194,2.1198,2.1301,2.1278,2.141,2.1328,2.1278,2.1322,2.1319,2.1416,2.1428,2.1461,2.1593,2.1599,2.1509,2.1514,2.1518,2.152,0,0,0,0,0,0,0,2.1014,2.1033,2.1229,2.1192,2.1197,2.12,2.1215,2.1303,2.136,2.1283,2.1283,2.1301,2.1418,2.1453,2.1465,2.1601,2.1509,2.1516,2.1521,2.1525,2.1828,2.1831,0,0,0,0,0,0,2.1,2.1026,2.1224,2.1233,2.1102,2.1206,2.1224,2.127,2.1359,2.137,2.1303,2.13,2.144,2.1455,2.147,2.1598,2.1518,2.1525,2.153,2.1825,2.1828,2.1832,0,0,0,0,0,0,2.0994,2.1017,2.1218,2.113,2.1156,2.1214,2.1266,2.1275,2.131,2.1374,2.1384,2.1328,2.1439,2.1458,2.1558,2.1604,2.1529,2.1537,2.1821,2.1826,2.183,2.1854,0,0,0,0,0,0,2.0986,2.1015,2.1054,2.1131,2.116,2.1302,2.1269,2.1279,2.1324,2.1323,2.1401,2.1411,2.1438,2.1545,2.1566,2.1614,2.1543,2.1817,2.1823,2.1829,2.185,2.1859,2.1867,0,0,0,0,0,2.0976,2.1054,2.1056,2.108,2.121,2.1305,2.1322,2.1351,2.1328,2.1368,2.141,2.1409,2.1595,2.1555,2.1579,2.163,2.1814,2.1821,2.1828,2.1846,2.1857,2.1867,0,0,0,0,0,0,2.098,2.1064,2.1067,2.1172,2.1231,2.1306,2.1357,2.1362,2.1429,2.1425,2.1459,2.1477,2.1576,2.1613,2.1567,2.1736,2.1702,2.1714,2.1708,2.1719,2.1728,2.1717,2.155,0,0,0,0,0,2.0994,2.1063,2.1133,2.1219,2.1249,2.1298,2.134,2.1359,2.1421,2.1446,2.1495,2.1556,2.1629,2.1676,2.1746,2.1855,2.1874,2.1902,2.1911,2.1918,2.1928,2.1991,2.2005,2.1854,2.1854,2.1854,0,0,2.1021,2.1076,2.1118,2.1221,2.1269,2.1342,2.1319,2.1396,2.1451,2.1458,2.1555,2.1594,2.1664,2.177,2.1818,2.1803,2.1974,2.1927,2.1932,2.1938,2.2,2.2014,2.2026,2.1859,2.1858,2.1857,0,0,2.1109,2.1157,2.1235,2.1284,2.1358,2.1391,2.1409,2.1484,2.151,2.1609,2.1617,2.1683,2.1806,2.1857,2.1899,2.2011,2.2013,2.2033,2.2079,2.214,2.2152,2.2162,2.2204,2.2218,2.2042,2.2042,2.2042,0,2.1134,2.1243,2.1274,2.1352,2.1398,2.141,2.149,2.1537,2.1629,2.1662,2.1644,2.1802,2.185,2.1969,2.1996,2.203,2.2053,2.2024,2.2147,2.2158,2.2169,2.2209,2.2224,2.2044,2.2044,2.2044,2.2044,0,2.1271,2.1347,2.1401,2.1492,2.1545,2.1623,2.1667,2.1717,2.1732,2.1767,2.1868,2.1927,2.2011,2.2041,2.2055,2.2163,2.2151,2.214,2.2107,2.2185,2.2223,2.2238,2.2047,2.2047,2.2046,2.2045,0,0,2.1363,2.1472,2.1492,2.1534,2.1618,2.1678,2.1758,2.1841,2.1884,2.1949,2.2018,2.2124,2.2116,2.2163,2.2184,2.2238,2.2325,2.222,2.2223,2.2239,2.245,2.2458,2.2475,2.2327,2.233,2.2332,2.2444,0,2.1461,2.1604,2.1636,2.1759,2.1831,2.1845,2.1916,2.1975,2.2011,2.2078,2.2118,2.2194,2.2175,2.2205,2.2258,2.2302,2.2367,2.2295,2.2393,2.2396,2.2375,2.2495,2.2503,2.2605,2.2459,2.2462,2.2463,0,2.1593,2.1663,2.1793,2.1871,2.1902,2.1965,2.2045,2.2108,2.2178,2.22,2.2256,2.2271,2.2357,2.2321,2.2441,2.2391,2.2433,2.2461,2.2466,2.2476,2.2434,2.2509,2.2638,2.2654,2.2487,2.2485,2.2483,0,2.1649,2.1775,2.187,2.1906,2.1998,2.2043,2.2083,2.215,2.2199,2.2269,2.2301,2.238,2.2424,2.2485,2.2523,2.2493,2.2641,2.2607,2.2663,2.2662,2.2693,2.2691,2.2832,2.272,2.2719,2.2719,2.2719,0,2.1755,2.1835,2.1897,2.1956,2.2047,2.2084,2.2173,2.2214,2.2274,2.2342,2.2358,2.2422,2.2467,2.2538,2.2567,2.2664,2.2683,2.2704,2.2711,2.2703,2.2701,2.2731,2.2726,2.2723,2.2722,2.2721,2.2721,0,2.1832,2.1877,2.1982,2.2062,2.2084,2.2148,2.2217,2.2275,2.2312,2.2398,2.2421,2.2479,2.2563,2.2607,2.2712,2.2732,2.2841,2.2843,2.2817,2.282,2.2875,2.2869,2.3041,2.3066,2.2936,2.2937,2.2938,0,2.1897,2.1959,2.2047,2.2094,2.2136,2.2211,2.2261,2.2301,2.2353,2.2439,2.2487,2.2573,2.2643,2.2777,2.2829,2.291,2.2915,2.297,2.2927,2.2918,2.2918,2.2914,2.2921,2.2977,2.2979,2.298,2.298,0,2.2008,2.2028,2.21,2.2181,2.2241,2.2307,2.2372,2.2409,2.246,2.2518,2.2605,2.2659,2.2768,2.2853,2.2938,2.2981,2.299,2.2994,2.3011,2.3004,2.2987,2.2998,2.2839,2.2989,2.2988,2.2988,2.2987,2.2987,2.2082,2.2139,2.221,2.2291,2.2345,2.2406,2.2465,2.2511,2.2584,2.2676,2.2695,2.2787,2.2858,2.2974,2.302,2.3093,2.3082,2.3107,2.3113,2.3119,2.3122,2.2975,2.3109,2.3109,2.3108,2.3108,2.3108,0,2.2195,2.2243,2.2316,2.2408,2.2472,2.2475,2.2548,2.2602,2.2683,2.2748,2.2818,2.2919,2.3003,2.3063,2.3148,2.3196,2.3202,2.3217,2.3214,2.3224,2.3127,2.3104,2.3211,2.321,2.321,2.321,2.321,2.321,2.2262,2.2359,2.2388,2.2513,2.256,2.2651,2.2693,2.275,2.2803,2.2915,2.2985,2.3024,2.3088,2.3179,2.3256,2.3272,2.3303,2.3318,2.3334,2.3242,2.3231,2.322,2.3199,2.3324,2.3324,2.3426,2.3427,2.3427]}]]